Find Starlink 31989

NORAD ID: 59959 Int'l Des: 2024-107 Owner: SPXS Country: US Constellation: starlink operational
LEOCIRCULAR

Live Position

Loading 3D Globe...

About Starlink 31989

Description loading...

Upcoming Passes

Passes for default location (London). Set your location on the main map for personalized predictions.

Altitude History

Loading altitude history...

Two-Line Element Set

1 59959U 24107Q 26139.59206280 .00003576 00000-0 13288-3 0 9990
2 59959 53.1603 96.0755 0001399 105.4318 254.6838 15.30177340110653
Epoch: May 19, 2026 • Age: 17 hours

Current Status

Altitude 486.8 km
Velocity 7.62 km/s
Sub-Earth Point -34.96°S, 36.69°W
Launch Date Jun 5, 2024
Age 1.9 years
Type internet

Technical Details

Classification Payload
Mass 730.00 kg
Dry Mass 700.00 kg
Total Mass 730.00 kg
Length 0.30 m
Diameter 4.10 m
Span 29.00 m
Shape Box + pan
Manufacturer SPXS
Bus Type Starlink V2M
Phase Status In Orbit
Owner/State SPXS/US

Most Searched